Tracking 28790 objects as of 19-Apr-2024
HD Live streaming from Space Station
objects crossing your sky now

NOAA 16 DEB

Track NOAA 16 DEB now!
10-day predictions


NORAD ID: 41141
Int'l Code: 2000-055BY
Perigee: 717.9 km
Apogee: 800.1 km
Inclination: 99.0 °
Period: 99.9 minutes
Semi major axis: 7129 km
RCS: Unknown
Launch date: September 21, 2000
Source: United States (US)
Launch site: AIR FORCE WESTERN TEST RANGE (AFWTR)

Note: This is SATELLITE DEBRIS
Your satellite tracking list
Your tracking list is empty




NASA's NSSDC Master Catalog

Two Line Element Set (TLE):
1 41141U 00055BY  24110.35062810  .00018079  00000-0  54020-2 0  9992
2 41141  99.0167 318.7309 0057588 229.6125 130.0028 14.42012773437308
Source of the keplerian elements: AFSPC